Regional Weather Roundup
Issued by NWS

Home | Current Version | Previous Version | Text Only | Print | Product List | Glossary On
Versions: 1 2 3 4 5 6 7 8 9 10 11 12 13 14 15 16 17 18 19 20 21 22 23 24 25 26 27 28 29 30 31 32 33 34 35 36 37 38 39 40 41 42 43 44 45 46 47 48 49 50
926
ASUS43 KTOP 261808
RWRKS

WEATHER ROUNDUP FOR KANSAS
NATIONAL WEATHER SERVICE GOODLAND KS
100 PM CDT SAT MAY 26 2018

NOTE:  "FAIR" INDICATES FEW OR NO CLOUDS BELOW 12,000 FEET WITH NO
SIGNIFICANT WEATHER AND/OR OBSTRUCTIONS TO VISIBILITY.

KSZ001>006-013>018-027>032-041>047-261900-
NORTHWEST KANSAS

CITY           SKY/WX    TMP DP  RH WIND       PRES   REMARKS
GOODLAND       SUNNY     90  47  22 S26G35    29.88F
6HR MIN TEMP:  66; 6HR MAX TEMP:  90;

HAYS           SUNNY     92  63  38 S14       29.84F
HILL CITY      SUNNY     90  65  43 S9        29.85S
6HR MIN TEMP:  63; 6HR MAX TEMP:  90;

RUSSELL        SUNNY     93  64  38 S14       29.83F
6HR MIN TEMP:  65; 6HR MAX TEMP:  93;

$$

KSZ061>065-074>080-084>089-261900-
SOUTHWEST KANSAS

CITY           SKY/WX    TMP DP  RH WIND       PRES   REMARKS
DODGE CITY     SUNNY     96  48  19 SE16      29.87F
6HR MIN TEMP:  67; 6HR MAX TEMP:  96;

ELKHART        PTSUNNY   92  54  27 SE18      29.91S
GARDEN CITY    SUNNY     93  48  21 S20G29    29.88F
6HR MIN TEMP:  62; 6HR MAX TEMP:  93;

GREAT BEND     SUNNY     93  63  36 S14       29.85F
LIBERAL        MOSUNNY   93  54  26 S16G24    29.90S
PRATT          SUNNY     90  61  37 S12       29.87F
6HR MIN TEMP:  67; 6HR MAX TEMP:  90;

$$

KSZ066>073-081>083-090>101-261900-
SOUTHEAST KANSAS

CITY           SKY/WX    TMP DP  RH WIND       PRES   REMARKS
CHANUTE        SUNNY     85  71  63 S6        29.86F
6HR MIN TEMP:  68; 6HR MAX TEMP:  86;

COFFEYVILLE    SUNNY     88  65  46 SW8       29.85F
6HR MIN TEMP:  67; 6HR MAX TEMP:  88;

HUTCHINSON     SUNNY     92  65  40 S9        29.84F
6HR MIN TEMP:  65; 6HR MAX TEMP:  92;

MEDICINE LODGE   N/A     90  66  45 S8        29.84F
NEWTON         SUNNY     88  69  53 SW7       29.86F
PARSONS        SUNNY     87  67  51 S7        29.87F
6HR MIN TEMP:  65; 6HR MAX TEMP:  87;

WICHITA INTL   MOSUNNY   91  66  43 S8        29.84F
6HR MIN TEMP:  67; 6HR MAX TEMP:  91;

WICHITA JABRA  SUNNY     87  69  54 S8        29.85F
6HR MIN TEMP:  66; 6HR MAX TEMP:  88;

WICHITA MCCONL SUNNY     89  66  47 S6        29.85F
WINFIELD       SUNNY     88  69  53 VRB5      29.86F
6HR MIN TEMP:  66; 6HR MAX TEMP:  88;

$$

KSZ007>012-019>026-033>040-048>060-102>105-261900-
NORTHEAST KANSAS

CITY           SKY/WX    TMP DP  RH WIND       PRES   REMARKS
CONCORDIA      SUNNY     89  67  47 MISG      29.82F
6HR MIN TEMP:  69; 6HR MAX TEMP:  91;

EMPORIA        SUNNY     87  72  60 SW8       29.84F
6HR MIN TEMP:  68; 6HR MAX TEMP:  87;

LAWRENCE       SUNNY     90  73  57 S8        29.81F HX  98
6HR MIN TEMP:  69; 6HR MAX TEMP:  90;

MANHATTAN      SUNNY     93  68  43 NE7       29.81F HX  97
6HR MIN TEMP:  67; 6HR MAX TEMP:  94;

OLATHE IND     SUNNY     89  74  60 SW8G18    29.83F HX  98
6HR MIN TEMP:  69; 6HR MAX TEMP:  89;

OLATHE EXE     SUNNY     87  73  62 W9        29.83F
6HR MIN TEMP:  69; 6HR MAX TEMP:  87;

SALINA         SUNNY     95  67  39 VRB5      29.82F HX  99
6HR MIN TEMP:  65; 6HR MAX TEMP:  95;

TOPEKA BILLARD SUNNY     92  70  48 SW6       29.80F HX  97
6HR MIN TEMP:  70; 6HR MAX TEMP:  92;

TOPEKA FORBES  SUNNY     91  72  53 CALM      29.82F HX  98
6HR MIN TEMP:  68; 6HR MAX TEMP:  92;

$$




USA.gov is the U.S. government's official web portal to all federal, state and local government web resources and services.